TimeEDT,TemperatureF,Dew PointF,Humidity,Sea Level PressureIn,VisibilityMPH,Wind Direction,Wind SpeedMPH,Gust SpeedMPH,PrecipitationIn,Events,Conditions,WindDirDegrees,DateUTC
12:21 AM,46.4,46.4,100,29.97,1.2,Calm,Calm,-,N/A,,Partly Cloudy,0,2013-10-01 04:21:00
12:37 AM,44.6,44.6,100,29.97,0.8,Calm,Calm,-,N/A,,Mist,0,2013-10-01 04:37:00
12:45 AM,46.4,46.4,100,29.97,0.2,Calm,Calm,-,N/A,Fog,Fog,0,2013-10-01 04:45:00
12:53 AM,46.9,46.0,97,29.97,0.2,Calm,Calm,-,N/A,Fog,Fog,0,2013-10-01 04:53:00
1:16 AM,46.4,44.6,93,29.97,0.2,Calm,Calm,-,N/A,Fog,Fog,0,2013-10-01 05:16:00
1:53 AM,45.0,45.0,100,29.97,0.2,Calm,Calm,-,N/A,Fog,Fog,0,2013-10-01 05:53:00
2:15 AM,44.6,44.6,100,29.97,0.2,Calm,Calm,-,N/A,Fog,Fog,0,2013-10-01 06:15:00
2:29 AM,46.4,44.6,93,29.98,1.8,Calm,Calm,-,N/A,,Partly Cloudy,0,2013-10-01 06:29:00
2:31 AM,46.4,44.6,93,29.98,4.0,Calm,Calm,-,N/A,,Partly Cloudy,0,2013-10-01 06:31:00
2:34 AM,46.4,46.4,100,29.98,1.5,Calm,Calm,-,N/A,,Scattered Clouds,0,2013-10-01 06:34:00
2:36 AM,46.4,46.4,100,29.98,0.8,Calm,Calm,-,N/A,,Mist,0,2013-10-01 06:36:00
2:53 AM,43.0,42.1,97,29.98,0.2,Calm,Calm,-,N/A,Fog,Fog,0,2013-10-01 06:53:00
3:07 AM,46.4,44.6,93,29.97,1.2,Calm,Calm,-,N/A,,Clear,0,2013-10-01 07:07:00
3:17 AM,44.6,44.6,100,29.97,0.5,Calm,Calm,-,N/A,Fog,Fog,0,2013-10-01 07:17:00
3:33 AM,44.6,44.6,100,29.98,0.2,Calm,Calm,-,N/A,Fog,Fog,0,2013-10-01 07:33:00
3:53 AM,45.0,44.1,97,29.98,0.2,Calm,Calm,-,N/A,Fog,Fog,0,2013-10-01 07:53:00
4:12 AM,44.6,44.6,100,29.98,0.2,Calm,Calm,-,N/A,Fog,Fog,0,2013-10-01 08:12:00
4:53 AM,45.0,44.1,97,29.99,0.2,Calm,Calm,-,N/A,Fog,Fog,0,2013-10-01 08:53:00
5:15 AM,44.6,44.6,100,29.99,1.2,Calm,Calm,-,N/A,,Partly Cloudy,0,2013-10-01 09:15:00
5:23 AM,44.6,44.6,100,29.99,0.8,Calm,Calm,-,N/A,,Mist,0,2013-10-01 09:23:00
5:34 AM,46.4,44.6,93,29.99,1.0,Calm,Calm,-,N/A,,Clear,0,2013-10-01 09:34:00
5:51 AM,44.6,44.6,100,29.99,0.5,Calm,Calm,-,N/A,Fog,Fog,0,2013-10-01 09:51:00
5:53 AM,45.0,44.1,97,29.99,0.8,Calm,Calm,-,N/A,,Clear,0,2013-10-01 09:53:00
5:57 AM,44.6,44.6,100,29.99,1.8,Calm,Calm,-,N/A,,Clear,0,2013-10-01 09:57:00
6:08 AM,44.6,44.6,100,30.00,3.0,WSW,3.5,-,N/A,,Clear,250,2013-10-01 10:08:00
6:32 AM,44.6,44.6,100,30.00,1.8,West,3.5,-,N/A,,Clear,260,2013-10-01 10:32:00
6:44 AM,44.6,44.6,100,30.00,4.0,Calm,Calm,-,N/A,,Clear,0,2013-10-01 10:44:00
6:53 AM,46.0,45.0,96,30.01,6.0,Calm,Calm,-,N/A,,Clear,0,2013-10-01 10:53:00
7:06 AM,46.4,44.6,93,30.01,2.0,Calm,Calm,-,N/A,,Clear,0,2013-10-01 11:06:00
7:09 AM,46.4,44.6,93,30.01,1.2,Calm,Calm,-,N/A,,Clear,0,2013-10-01 11:09:00
7:16 AM,44.6,44.6,100,30.01,0.2,Calm,Calm,-,N/A,Fog,Fog,0,2013-10-01 11:16:00
7:53 AM,45.0,44.1,97,30.03,1.5,Calm,Calm,-,N/A,,Mostly Cloudy,0,2013-10-01 11:53:00
7:55 AM,44.6,44.6,100,30.02,3.0,West,3.5,-,N/A,,Mostly Cloudy,260,2013-10-01 11:55:00
8:17 AM,50.0,48.2,94,30.02,2.5,SSW,3.5,-,N/A,,Overcast,210,2013-10-01 12:17:00
8:21 AM,51.8,50.0,94,30.02,1.5,Calm,Calm,-,N/A,,Overcast,0,2013-10-01 12:21:00
8:28 AM,51.8,51.8,100,30.02,1.0,Calm,Calm,-,N/A,,Overcast,0,2013-10-01 12:28:00
8:36 AM,51.8,51.8,100,30.02,0.2,Calm,Calm,-,N/A,Fog,Fog,0,2013-10-01 12:36:00
8:53 AM,53.1,53.1,100,30.03,0.2,SSW,3.5,-,N/A,Fog,Fog,200,2013-10-01 12:53:00
9:53 AM,55.0,55.0,100,30.04,0.2,SSW,3.5,-,N/A,Fog,Fog,210,2013-10-01 13:53:00
10:53 AM,60.1,60.1,100,30.03,1.0,SSW,5.8,-,N/A,,Overcast,210,2013-10-01 14:53:00
11:32 AM,60.8,60.8,100,30.03,1.8,SSW,5.8,-,N/A,,Overcast,210,2013-10-01 15:32:00
11:40 AM,60.8,60.8,100,30.03,2.5,SSW,5.8,-,N/A,,Overcast,210,2013-10-01 15:40:00
11:45 AM,60.8,60.8,100,30.03,3.0,SSW,5.8,-,N/A,,Overcast,210,2013-10-01 15:45:00
11:53 AM,62.1,61.0,96,30.03,3.0,SSW,6.9,-,N/A,,Overcast,210,2013-10-01 15:53:00
12:09 PM,62.6,60.8,94,30.02,5.0,SW,5.8,-,N/A,,Overcast,220,2013-10-01 16:09:00
12:39 PM,64.4,60.8,88,30.01,6.0,SW,9.2,-,N/A,,Overcast,220,2013-10-01 16:39:00
12:53 PM,64.9,60.1,84,30.01,7.0,SW,11.5,-,N/A,,Overcast,220,2013-10-01 16:53:00
1:53 PM,66.9,61.0,81,29.99,10.0,SSW,8.1,-,N/A,,Overcast,210,2013-10-01 17:53:00
2:03 PM,68.0,60.8,78,29.99,10.0,SW,11.5,20.7,N/A,,Overcast,220,2013-10-01 18:03:00
2:53 PM,68.0,61.0,78,29.99,10.0,SW,11.5,-,N/A,,Overcast,220,2013-10-01 18:53:00
3:53 PM,68.0,60.1,76,29.98,10.0,SW,15.0,-,N/A,,Overcast,230,2013-10-01 19:53:00
4:53 PM,68.0,60.1,76,29.97,10.0,SW,10.4,-,N/A,,Overcast,230,2013-10-01 20:53:00
5:53 PM,68.0,60.1,76,29.96,10.0,SW,10.4,-,N/A,,Overcast,230,2013-10-01 21:53:00
6:32 PM,66.2,60.8,83,29.95,9.0,SW,8.1,-,N/A,,Scattered Clouds,230,2013-10-01 22:32:00
6:53 PM,66.9,59.0,76,29.96,10.0,SW,9.2,-,N/A,,Partly Cloudy,230,2013-10-01 22:53:00
7:53 PM,63.0,59.0,87,29.96,10.0,SSW,4.6,-,N/A,,Clear,210,2013-10-01 23:53:00
8:53 PM,57.0,55.9,96,29.97,6.0,Calm,Calm,-,N/A,,Clear,0,2013-10-02 00:53:00
9:13 PM,55.4,55.4,100,29.97,1.8,SW,3.5,-,N/A,,Clear,220,2013-10-02 01:13:00
9:26 PM,57.2,57.2,100,29.97,3.0,SW,3.5,-,N/A,,Clear,220,2013-10-02 01:26:00
9:53 PM,55.0,55.0,100,29.97,5.0,SW,3.5,-,N/A,,Clear,230,2013-10-02 01:53:00
10:53 PM,59.0,57.0,93,29.97,10.0,SW,5.8,-,N/A,,Clear,230,2013-10-02 02:53:00
11:53 PM,59.0,57.0,93,29.97,10.0,SW,5.8,-,N/A,,Clear,230,2013-10-02 03:53:00